DECAYED

SL-16 DEB, 22433 (Decayed)

Orbit data source: Space-Track

SL-16 DEB, 22433 was space debris in LEO originally from a launch on Fri, 25 Dec 1992 UTC launched from the Tyuratam Missile And Space Complex (TTMTR). Debris objects in space refer to the collection of defunct objects orbiting the Earth. Examples of debris include non-operational satellites, rocket bodies, and fragments generated from explosions, collisions, or faulty payload assembly.

Not visible in the next 10 days
Identifier
22433, 1992-093EA
Orbit
Decayed
Country
Flag of CISCIS
Related business
Manufacturer
Unknown
Mission
Decayed spacecraft
Bus & Motor
Unknown
Mass
Unknown
Launch date (UTC)
1992-12-25 (33 years ago)
Launch vehicle
Unknown
Launch site
Tyuratam Missile And Space Complex (TTMTR)
Object type
Payload
Rocket body
Debris
Shape & HBR
Unknown shape, 0.1 m
Radar Cross Section
Small (<0.1 m²)

Expand to show TLE details & history
Last TLE update: 1 year ago

TLE from 1 year ago
0 SL-16 DEB
1 22433U 92093EA  25138.52262322  .07367222  10250+0  17731-1 0  9996
2 22433  71.0881  67.5767 0023748 200.3613 159.6662 16.00830386680967
Epoch: 2025-05-18T12:32Z
TLE epoch observation values (Epoch: 2025-05-18T12:32:34.646Z)
Latitude
-0.00006°
Longitude
2.98394°
Altitude
289.546 km
Speed
7.726 km/s
True Right ascension
04h 30m 18s
True Declination
0° 00' 00"
Sunlit
Object was in daylight at epoch
Visualization orbit readout
Latitude
Unknown
Longitude
Unknown
Altitude
Unknown
Speed
Unknown
Apparent Right ascension
Unknown
Apparent Declination
Unknown
Sunlit
N/A
Visualization observer readout
Local Sidereal Time
20:27:41
Azimuth
Unknown
Elevation
Unknown
Doppler factor
Unknown
Orbital elements
Apogee altitude
285.643 km
Perigee altitude
254.067 km
Semi-major axis
6,647.992 km
Eccentricity
0.00237
Inclination
71.0881°
RAAN
67.5767°
Arg. of periapsis
200.3613°
True anomaly
159.7605°
Mean anomaly
159.6662°
Eccentric anomaly
159.71338°
Mean motion
4.00412 °/min
Orbital period
89.91 mins
BSTAR
0.017731
Loading maneuver chart data...
Computing Atmospheric mass density...
Loading historical data...
Loading historical data...
Loading historical data...
Loading historical data...
Loading historical data...
Loading historical data...
Loading historical data...

Documentation

Showing up to 5 results
|